SCP
0 0 0 0 0 0 0 0 0 0 0 0 0 0 0 0 0 -0 -0 -0 -0 -0 -0 -0 -0 -0 0 0 0 0 0 0 0 0 0 0 0 0 0 -0 -0 -0 -0 0 0 0 0
0 0 0 0 0 0 0 0 0 0 0 0 0 0 0 0 0 -0 -0 -0 -0 -0 -0 -0 -0 -0 0 0 0 0 0 0 0 0 0 0 0 0 0 -0 -0 -0 0 -0 0 0 0
0 0 0 0 0 0 0 0 0 0 0 0 0 0 0 0 0 0 -0 -0 -0 -0 -0 0 0 0 0 0 0 0 0 0 0 0 0 0 0 0 0 -0 0 -0 -0 0 0 0 0
0 0 0 0 0 0 0 0 0 0 0 0 0 0 0 0 0 0 0 -0 -0 -0 0 0 -0 0 0 0 0 0 0 0 0 0 0 0 0 0 0 0 0 -0 0 0 0 -0 0
0 0 0 0 0 0 0 0 0 0 0 0 0 0 0 0 0 0 0 0 0 0 0 0 0 0 0 0 0 0 0 0 0 0 0 0 0 0 0 0 0 0 0 0 0 0 0
0 0 0 0 0 0 0 0 0 0 0 0 0 0 0 0 0 0 0 0 0 0 0 0 0 0 0 0 0 0 0 0 0 0 0 0 0 0 0 0 -0 0 0 0 0 0 0
0 0 0 0 0 0 0 0 0 0 0 0 0 0 0 0 0 0 0 0 0 0 0 0 0 0 0 0 0 0 0 0 0 0 0 0 0 0 0 0 0 0 0 0 0 0 0
0 0 0 0 0 0 0 0 0 0 0 0 0 0 0 0 0 0 0 0 0 0 0 0 0 0 0 0 0 0 0 0 0 0 0 0 0 0 0 0 0 0 0 0 0 0 0
0 0 0 0 0 0 0 0 0 0 0 0 0 0 0 0 0 0 0 0 0 0 0 0 0 0 0 0 0 0 0 0 0 0 0 0 0 0 0 0 0 0 0 0 0 0 0
0 0 0 0 0 0 0 0 0 0 0 0 0 0 0 0 0 0 0 0 0 -0 0 0 0 0 0 0 0 0 0 0 0 0 0 0 0 0 0 0 0 0 0 0 0 0 0
0 0 0 0 0 0 0 0 0 0 0 0 0 0 0 0 0 0 0 0 0 0 0 0 0 0 0 0 0 0 0 0 0 0 0 0 0 0 0 0 0 0 0 0 0 0 0
0 0 0 0 0 0 0 -0 -0 0 0 0 0 0 0 0 0 0 0 0 0 0 0 0 0 0 0 0 0 0 0 0 0 0 0 0 0 0 0 0 0 0 0 0 0 0 0
0 0 0 0 0 0 -0 -0 -0 -0 -0 0 0 0 0 0 0 0 0 0 0 0 0 0 0 0 0 0 0 0 0 0 0 0 0 0 0 0 0 0 0 0 0 0 0 0 0
-0 0 0 0 0 0 0 0 0 -0 -0 -0 -0 0 0 0 0 0 0 0 0 0 0 0 0 0 0 0 0 0 0 0 0 0 0 0 0 0 0 0 0 0 0 0 0 0 0
-0 -0 -0 -0 -0 0 0 0 0 0 -0 -0 0 0 0 0 0 0 0 0 0 0 0 0 0 0 0 0 0 0 0 0 0 0 0 0 0 0 0 0 0 0 0 0 0 0 0
-0 -0 -0 -0 -0 -0 -0 -0 -0 -0 0 0 0 0 0 0 0 0 0 0 0 0 0 0 0 0 0 0 0 0 0 0 0 0 0 0 0 0 0 0 0 0 0 0 0 0 0
0 0 -0 -0 -0 -0 -0 -0 -0 -0 -0 0 0 0 0 0 0 0 0 0 0 0 0 0 0 0 0 0 0 0 0 0 0 0 0 0 0 0 0 0 0 0 0 0 0 0 0
0 0 0 0 -0 -0 -0 -0 -0 -0 -0 0 0 0 0 0 0 0 0 0 0 0 0 0 0 0 0 0 0 0 0 0 0 0 0 0 0 0 0 0 0 0 0 0 0 0 0
0 0 0 0 0 0 0 -0 -0 -0 0 0 0 0 0 0 0 0 0 0 0 0 0 0 0 0 0 0 0 0 0 0 0 0 0 0 0 0 0 0 0 0 0 0 0 0 0
0 0 0 0 0 0 -0 -0 -0 -0 0 0 0 0 0 0 0 0 0 0 0 0 0 0 0 0 0 0 0 0 0 0 0 0 0 0 0 0 0 0 0 0 0 0 0 0 0
0 0 0 0 0 0 0 -0 -0 -0 0 0 0 0 0 0 0 0 0 0 0 0 0 0 0 0 0 0 0 0 0 0 0 0 0 0 0 0 0 0 0 0 0 0 0 0 0
0 0 0 0 0 0 0 -0 -0 -0 -0 0 0 0 0 0 0 0 0 0 0 0 0 0 0 0 0 0 0 0 0 0 0 0 0 0 0 0 0 0 0 0 0 0 0 0 0
0 0 0 0 0 -0 -0 -0 -0 -0 -0 0 0 0 0 0 0 0 0 0 0 0 0 0 0 0 0 0 0 0 0 0 0 0 0 0 0 0 0 0 0 0 0 0 0 0 0
0 0 0 0 0 -0 -0 -0 -0 -0 -0 0 0 0 0 0 0 0 0 0 0 0 0 0 0 0 0 0 0 0 0 0 0 0 0 0 0 0 0 0 0 0 1 0 0 0 0
0 0 0 0 0 -0 -0 -0 -0 -0 -0 0 0 0 0 0 0 0 0 0 0 0 0 0 0 0 0 0 0 0 0 0 0 0 0 0 0 0 0 0 0 1 1 1 0 0 0
0 0 0 0 0 0 -0 -0 -0 -0 -0 0 0 0 0 0 0 0 0 0 0 0 0 0 0 0 0 0 0 0 0 0 0 0 0 0 0 0 0 0 0 0 0 0 0 0 0
0 0 0 0 0 0 0 -0 -0 -0 -0 0 0 0 0 0 0 0 0 0 0 0 0 0 0 0 0 0 0 0 0 0 0 0 0 0 0 0 0 0 0 0 0 0 0 0 0
0 0 0 0 0 0 0 0 -0 -0 -0 0 0 0 0 0 0 0 0 0 0 0 0 0 0 0 0 0 0 0 0 0 0 0 0 0 0 0 0 0 0 1 1 0 0 1 1
0 0 0 0 0 0 0 0 0 -0 -0 0 0 0 0 0 0 0 0 0 0 0 0 0 0 0 0 0 0 0 0 0 0 0 0 0 0 0 0 0 0 1 1 2 1 1 0
Wind_Speed_500mb
6 6 7 9 12 13 14 14 15 15 17 19 21 23 23 23 23 23 23 23 24 23 24 24 23 20 12 3 2 6 9 10 12 7 8 8 12 2 4 4 1 1 5 5 9 10 9
7 8 9 9 12 14 16 17 17 18 19 21 22 23 24 26 26 24 24 25 24 23 23 23 22 19 15 6 6 2 5 7 6 8 12 14 10 5 2 2 4 7 13 11 4 4 12
10 11 11 12 13 14 16 18 19 20 22 23 25 24 26 26 28 25 24 26 26 23 22 21 21 20 17 16 10 8 2 8 3 3 6 10 12 8 4 2 11 10 11 11 10 6 2
13 14 14 14 15 16 17 19 21 21 23 25 26 27 26 27 28 26 25 27 26 24 22 20 19 19 12 10 13 14 6 8 4 3 6 5 13 5 2 4 7 1 3 6 6 5 4
11 13 14 15 17 18 18 20 23 24 25 26 28 28 28 27 26 25 25 25 24 22 19 18 16 11 12 7 11 11 10 6 6 4 5 7 8 4 3 3 1 11 5 7 11 11 3
12 12 12 14 16 17 18 19 21 23 25 26 27 28 28 27 25 23 22 21 17 15 15 16 17 9 11 5 4 8 13 12 5 5 2 2 5 1 3 6 15 5 2 4 10 5 6
13 13 13 13 14 16 17 19 20 22 24 26 26 27 26 25 22 19 14 9 10 8 10 13 5 9 10 6 6 6 10 16 7 5 4 6 6 10 8 5 8 6 4 5 10 6 8
15 14 15 15 16 17 18 19 20 21 23 24 25 25 23 21 16 10 7 5 9 6 15 20 31 41 37 26 9 7 13 14 8 7 6 4 9 4 4 9 7 3 2 6 11 10 4
15 15 15 16 17 18 19 20 21 22 23 24 25 23 19 16 11 3 8 9 7 9 6 15 22 23 20 24 14 16 25 14 6 9 8 7 6 8 10 6 7 5 8 4 5 6 5
17 17 16 17 18 18 19 21 22 23 24 24 24 21 17 9 4 7 11 4 6 5 4 6 7 5 16 15 10 26 30 13 4 12 10 7 3 7 4 8 13 8 14 6 3 3 5
17 17 18 17 19 18 18 20 21 22 24 24 24 20 15 6 7 11 10 3 1 2 5 5 2 2 13 19 7 20 34 19 11 10 8 4 9 8 6 5 17 4 7 8 4 6 4
19 19 18 19 21 21 21 21 22 23 24 24 23 20 13 8 10 13 13 8 6 3 10 4 0 6 11 11 3 10 15 14 9 8 3 6 5 7 5 3 4 19 9 10 7 1 5
19 21 21 21 22 23 24 24 24 24 24 23 22 20 12 9 8 18 17 13 4 7 5 3 3 4 5 13 8 7 22 20 12 9 14 5 7 6 8 6 9 5 6 4 6 6 3
20 22 23 25 26 27 27 28 27 26 27 24 22 17 12 11 13 21 17 4 7 5 8 4 5 7 10 17 17 9 16 21 8 5 6 14 13 12 10 9 8 7 5 5 3 5 1
18 22 24 26 28 29 30 30 29 27 28 25 20 13 6 12 20 25 16 7 11 9 4 8 8 5 4 6 7 20 22 16 22 21 7 9 10 4 4 4 3 10 7 7 12 2 6
17 20 23 25 27 30 32 33 32 29 27 25 15 2 3 10 26 25 5 8 6 6 8 3 3 1 2 1 11 16 18 13 14 27 28 7 5 1 5 6 17 3 17 8 2 8 6
19 21 23 25 27 29 31 33 33 30 25 22 4 7 7 15 26 11 8 8 6 10 7 4 3 5 4 3 3 7 9 6 17 18 21 15 4 5 4 7 12 10 8 10 9 4 5
19 21 23 25 27 29 30 32 33 31 26 13 4 4 12 13 6 3 4 3 5 6 3 4 4 7 4 5 5 7 14 9 12 27 22 13 6 12 12 2 4 3 10 11 8 10 3
15 18 21 24 27 28 28 30 31 30 28 14 6 7 13 7 4 3 1 4 6 4 4 4 6 8 1 3 5 8 7 0 10 21 20 17 6 8 6 4 4 6 6 8 14 5 12
15 18 21 25 25 24 24 27 29 28 23 13 4 4 5 3 8 4 3 2 6 7 13 8 8 4 4 5 5 6 4 2 2 14 6 25 9 11 14 5 5 8 9 14 4 9 16
16 19 22 24 28 30 28 25 25 24 17 13 8 4 3 4 5 4 3 2 4 7 6 6 6 18 11 5 4 8 4 4 5 4 7 12 15 12 8 7 7 8 20 17 10 13 10
19 19 21 22 24 26 27 26 27 26 16 16 6 3 4 4 1 4 3 3 7 5 7 8 12 12 14 14 8 4 3 1 1 2 5 1 10 12 13 9 16 11 15 12 8 12 3
18 20 20 21 23 26 29 28 27 26 21 11 7 6 2 3 1 4 4 3 8 5 15 31 20 14 12 14 9 6 2 4 3 3 6 5 12 10 10 6 18 9 14 16 7 4 4
14 20 21 19 22 25 26 26 26 23 21 18 14 4 3 4 2 1 2 9 16 17 9 16 10 10 2 12 8 4 1 4 4 14 2 11 8 4 7 10 14 7 9 8 5 5 13
11 16 22 19 19 21 21 22 22 20 17 16 19 7 4 1 2 3 10 9 17 12 11 11 6 16 18 3 4 4 1 6 6 12 14 5 8 8 8 6 3 7 8 6 7 8 15
8 12 17 21 16 18 18 18 17 16 15 9 15 14 4 3 4 5 7 8 7 9 6 4 7 15 3 2 3 7 8 5 6 4 4 11 13 5 4 8 10 9 8 7 7 7 9
10 8 12 17 18 15 15 15 14 12 12 6 10 17 6 5 3 4 4 4 8 5 5 9 19 14 18 2 3 3 5 2 8 9 3 5 6 5 6 5 3 2 5 3 8 4 6
10 8 9 12 17 14 14 14 13 10 10 9 8 11 14 10 15 8 5 4 8 8 5 16 7 8 8 5 0 3 1 4 3 4 3 3 4 4 5 5 7 10 5 8 3 8 3
14 10 8 10 14 14 12 12 13 10 9 9 8 12 15 11 12 20 25 25 26 23 12 11 2 3 7 3 3 2 3 2 2 6 2 4 4 2 5 3 3 5 11 4 3 7 4
Wind_Direction_500mb
332 322 325 327 326 327 324 324 324 323 322 322 319 321 323 324 322 322 324 324 320 323 325 328 336 342 351 313 125 356 34 111 115 85 47 97 66 87 148 143 153 303 337 283 277 243 199
325 324 322 321 319 316 316 318 318 319 318 317 314 314 317 318 316 319 322 316 314 315 317 321 326 334 331 273 205 76 77 165 107 70 45 53 43 28 102 90 31 320 278 295 231 135 178
332 326 322 322 315 309 311 313 314 316 315 314 312 311 311 312 312 318 317 310 308 308 308 313 315 322 303 257 210 196 133 178 178 44 45 21 13 1 310 83 343 343 354 339 46 347 168
329 333 332 325 318 312 311 311 310 312 313 311 308 310 312 311 310 315 315 305 305 304 302 301 304 312 272 260 220 221 229 190 209 347 328 328 342 3 337 359 35 59 70 319 22 327 259
339 332 331 329 324 320 314 314 313 312 311 311 311 312 313 312 312 313 311 303 302 299 297 291 296 301 277 262 231 218 215 188 175 3 296 278 333 29 68 86 226 36 302 331 325 10 286
354 347 336 329 328 325 323 320 315 312 312 312 310 310 311 314 314 315 312 307 297 289 286 286 266 290 251 190 221 207 212 189 174 23 122 345 30 355 101 196 231 187 31 313 283 324 302
355 352 345 339 334 330 327 324 321 317 314 314 313 311 311 313 317 321 315 310 298 287 269 237 198 250 286 227 279 236 191 193 167 105 140 24 239 210 179 122 110 136 122 287 275 288 293
357 351 350 344 344 339 335 331 326 322 318 316 315 314 316 314 315 326 337 67 48 295 307 257 252 252 252 262 301 231 186 170 165 178 148 180 239 219 174 166 173 163 6 243 287 0 264
356 353 353 352 348 344 340 336 332 327 323 320 319 318 318 312 307 183 108 75 27 345 276 282 242 246 238 225 225 213 180 171 153 161 179 197 140 126 218 203 191 174 218 199 284 337 88
354 354 354 356 354 349 344 340 335 332 328 325 321 320 319 312 236 186 168 76 22 346 322 255 237 239 201 172 228 215 197 169 139 208 171 242 227 235 228 211 187 221 211 181 214 332 18
352 354 354 358 358 352 345 340 336 334 332 329 323 319 319 284 253 174 181 129 65 328 302 63 199 221 181 186 148 197 192 196 183 173 190 183 173 184 285 214 187 111 109 119 93 95 202
343 350 353 357 357 352 347 341 337 334 333 330 322 313 306 278 245 188 172 163 141 223 248 25 161 164 153 220 201 122 166 171 187 157 234 265 278 256 243 56 181 142 98 67 76 47 235
344 347 353 356 357 354 349 343 340 334 331 331 320 307 293 253 195 179 178 159 157 209 352 48 29 31 212 185 209 160 181 183 183 169 216 220 228 257 200 148 104 120 135 224 216 202 194
344 347 353 353 355 354 352 348 343 336 330 333 324 303 283 239 199 180 167 119 188 229 246 335 323 299 215 166 213 165 154 194 195 135 147 202 203 200 168 225 169 159 214 218 214 163 115
341 344 348 352 353 353 352 350 346 339 331 337 331 307 261 197 183 178 167 191 207 210 329 320 300 260 231 214 221 196 217 203 201 194 205 168 232 264 227 129 219 154 175 82 107 55 244
340 343 345 350 352 351 351 351 349 344 336 338 345 19 131 178 175 170 146 215 233 241 327 274 279 302 292 335 193 193 178 188 194 200 209 174 225 213 91 107 54 216 138 158 118 181 215
338 341 347 352 352 352 351 351 351 347 342 340 20 116 38 145 156 163 198 219 264 269 238 281 307 301 293 318 230 205 195 209 212 187 194 160 235 130 197 207 188 149 174 67 101 328 181
336 340 348 353 354 353 352 352 353 351 355 351 69 94 132 125 110 60 164 198 314 291 270 278 262 258 260 321 275 231 222 247 189 154 176 188 158 239 253 59 308 289 180 160 195 182 77
343 347 351 358 356 354 353 354 356 357 2 17 65 93 154 96 148 141 280 290 265 275 277 324 276 243 225 278 296 229 208 1 180 172 171 172 197 222 183 154 148 219 137 106 103 129 178
348 351 359 3 2 5 0 356 357 359 5 21 49 127 92 84 76 60 48 28 283 295 256 250 276 269 285 245 212 298 259 140 3 218 222 164 144 191 214 189 152 164 157 165 154 178 161
352 354 359 5 3 5 5 6 2 1 12 25 25 69 89 136 104 74 308 306 267 297 266 259 246 238 240 264 234 228 253 294 87 204 114 189 192 187 220 223 215 184 172 177 209 155 199
2 355 359 3 4 7 7 9 10 8 16 30 37 3 71 85 102 122 119 247 260 248 236 248 233 287 233 230 248 247 201 269 272 110 127 151 165 170 208 180 200 177 161 170 181 170 133
2 3 358 1 1 9 13 14 13 10 23 32 27 41 72 13 101 171 135 354 292 345 249 247 284 306 246 236 281 313 223 125 11 233 138 147 145 163 186 158 140 141 163 169 153 193 168
351 0 1 0 3 10 15 15 16 15 30 32 21 13 315 124 279 25 301 301 283 269 260 308 305 214 278 297 264 250 172 169 96 49 103 135 110 62 129 152 193 49 270 234 182 168 221
333 350 360 360 1 8 13 16 17 13 19 22 21 19 8 142 299 262 333 313 319 303 219 244 305 321 299 163 207 166 164 167 52 42 43 72 135 105 157 142 45 114 140 153 181 178 210
313 345 353 0 356 1 9 11 15 10 6 13 19 14 7 283 149 314 322 347 343 333 295 262 318 348 343 103 174 172 177 151 168 120 39 73 69 105 140 148 178 126 98 348 278 186 201
275 321 344 355 356 354 3 4 11 4 355 349 7 13 350 305 273 356 7 350 342 326 286 319 337 351 10 94 115 176 171 301 168 150 131 47 24 85 128 95 148 187 329 322 197 64 26
256 292 324 341 352 347 356 359 358 1 346 340 310 328 2 316 291 273 271 320 342 4 7 328 304 16 359 60 335 103 127 69 111 56 47 100 122 130 128 118 194 5 224 185 4 324 298
244 265 295 319 338 342 343 354 353 353 349 346 326 320 322 294 273 290 286 274 270 275 283 336 15 335 11 340 58 153 136 84 6 136 64 153 352 33 249 66 10 322 295 310 187 309 194
Wind_Speed_850mb
6 6 7 9 12 13 14 14 15 15 17 19 21 23 23 23 23 23 23 23 24 23 24 24 23 20 12 3 2 6 9 10 12 7 8 8 12 2 4 4 1 1 5 5 9 10 9
7 8 9 9 12 14 16 17 17 18 19 21 22 23 24 26 26 24 24 25 24 23 23 23 22 19 15 6 6 2 5 7 6 8 12 14 10 5 2 2 4 7 13 11 4 4 12
10 11 11 12 13 14 16 18 19 20 22 23 25 24 26 26 28 25 24 26 26 23 22 21 21 20 17 16 10 8 2 8 3 3 6 10 12 8 4 2 11 10 11 11 10 6 2
13 14 14 14 15 16 17 19 21 21 23 25 26 27 26 27 28 26 25 27 26 24 22 20 19 19 12 10 13 14 6 8 4 3 6 5 13 5 2 4 7 1 3 6 6 5 4
11 13 14 15 17 18 18 20 23 24 25 26 28 28 28 27 26 25 25 25 24 22 19 18 16 11 12 7 11 11 10 6 6 4 5 7 8 4 3 3 1 11 5 7 11 11 3
12 12 12 14 16 17 18 19 21 23 25 26 27 28 28 27 25 23 22 21 17 15 15 16 17 9 11 5 4 8 13 12 5 5 2 2 5 1 3 6 15 5 2 4 10 5 6
13 13 13 13 14 16 17 19 20 22 24 26 26 27 26 25 22 19 14 9 10 8 10 13 5 9 10 6 6 6 10 16 7 5 4 6 6 10 8 5 8 6 4 5 10 6 8
15 14 15 15 16 17 18 19 20 21 23 24 25 25 23 21 16 10 7 5 9 6 15 20 31 41 37 26 9 7 13 14 8 7 6 4 9 4 4 9 7 3 2 6 11 10 4
15 15 15 16 17 18 19 20 21 22 23 24 25 23 19 16 11 3 8 9 7 9 6 15 22 23 20 24 14 16 25 14 6 9 8 7 6 8 10 6 7 5 8 4 5 6 5
17 17 16 17 18 18 19 21 22 23 24 24 24 21 17 9 4 7 11 4 6 5 4 6 7 5 16 15 10 26 30 13 4 12 10 7 3 7 4 8 13 8 14 6 3 3 5
17 17 18 17 19 18 18 20 21 22 24 24 24 20 15 6 7 11 10 3 1 2 5 5 2 2 13 19 7 20 34 19 11 10 8 4 9 8 6 5 17 4 7 8 4 6 4
19 19 18 19 21 21 21 21 22 23 24 24 23 20 13 8 10 13 13 8 6 3 10 4 0 6 11 11 3 10 15 14 9 8 3 6 5 7 5 3 4 19 9 10 7 1 5
19 21 21 21 22 23 24 24 24 24 24 23 22 20 12 9 8 18 17 13 4 7 5 3 3 4 5 13 8 7 22 20 12 9 14 5 7 6 8 6 9 5 6 4 6 6 3
20 22 23 25 26 27 27 28 27 26 27 24 22 17 12 11 13 21 17 4 7 5 8 4 5 7 10 17 17 9 16 21 8 5 6 14 13 12 10 9 8 7 5 5 3 5 1
18 22 24 26 28 29 30 30 29 27 28 25 20 13 6 12 20 25 16 7 11 9 4 8 8 5 4 6 7 20 22 16 22 21 7 9 10 4 4 4 3 10 7 7 12 2 6
17 20 23 25 27 30 32 33 32 29 27 25 15 2 3 10 26 25 5 8 6 6 8 3 3 1 2 1 11 16 18 13 14 27 28 7 5 1 5 6 17 3 17 8 2 8 6
19 21 23 25 27 29 31 33 33 30 25 22 4 7 7 15 26 11 8 8 6 10 7 4 3 5 4 3 3 7 9 6 17 18 21 15 4 5 4 7 12 10 8 10 9 4 5
19 21 23 25 27 29 30 32 33 31 26 13 4 4 12 13 6 3 4 3 5 6 3 4 4 7 4 5 5 7 14 9 12 27 22 13 6 12 12 2 4 3 10 11 8 10 3
15 18 21 24 27 28 28 30 31 30 28 14 6 7 13 7 4 3 1 4 6 4 4 4 6 8 1 3 5 8 7 0 10 21 20 17 6 8 6 4 4 6 6 8 14 5 12
15 18 21 25 25 24 24 27 29 28 23 13 4 4 5 3 8 4 3 2 6 7 13 8 8 4 4 5 5 6 4 2 2 14 6 25 9 11 14 5 5 8 9 14 4 9 16
16 19 22 24 28 30 28 25 25 24 17 13 8 4 3 4 5 4 3 2 4 7 6 6 6 18 11 5 4 8 4 4 5 4 7 12 15 12 8 7 7 8 20 17 10 13 10
19 19 21 22 24 26 27 26 27 26 16 16 6 3 4 4 1 4 3 3 7 5 7 8 12 12 14 14 8 4 3 1 1 2 5 1 10 12 13 9 16 11 15 12 8 12 3
18 20 20 21 23 26 29 28 27 26 21 11 7 6 2 3 1 4 4 3 8 5 15 31 20 14 12 14 9 6 2 4 3 3 6 5 12 10 10 6 18 9 14 16 7 4 4
14 20 21 19 22 25 26 26 26 23 21 18 14 4 3 4 2 1 2 9 16 17 9 16 10 10 2 12 8 4 1 4 4 14 2 11 8 4 7 10 14 7 9 8 5 5 13
11 16 22 19 19 21 21 22 22 20 17 16 19 7 4 1 2 3 10 9 17 12 11 11 6 16 18 3 4 4 1 6 6 12 14 5 8 8 8 6 3 7 8 6 7 8 15
8 12 17 21 16 18 18 18 17 16 15 9 15 14 4 3 4 5 7 8 7 9 6 4 7 15 3 2 3 7 8 5 6 4 4 11 13 5 4 8 10 9 8 7 7 7 9
10 8 12 17 18 15 15 15 14 12 12 6 10 17 6 5 3 4 4 4 8 5 5 9 19 14 18 2 3 3 5 2 8 9 3 5 6 5 6 5 3 2 5 3 8 4 6
10 8 9 12 17 14 14 14 13 10 10 9 8 11 14 10 15 8 5 4 8 8 5 16 7 8 8 5 0 3 1 4 3 4 3 3 4 4 5 5 7 10 5 8 3 8 3
14 10 8 10 14 14 12 12 13 10 9 9 8 12 15 11 12 20 25 25 26 23 12 11 2 3 7 3 3 2 3 2 2 6 2 4 4 2 5 3 3 5 11 4 3 7 4
Wind_Direction_850mb
332 322 325 327 326 327 324 324 324 323 322 322 319 321 323 324 322 322 324 324 320 323 325 328 336 342 351 313 125 356 34 111 115 85 47 97 66 87 148 143 153 303 337 283 277 243 199
325 324 322 321 319 316 316 318 318 319 318 317 314 314 317 318 316 319 322 316 314 315 317 321 326 334 331 273 205 76 77 165 107 70 45 53 43 28 102 90 31 320 278 295 231 135 178
332 326 322 322 315 309 311 313 314 316 315 314 312 311 311 312 312 318 317 310 308 308 308 313 315 322 303 257 210 196 133 178 178 44 45 21 13 1 310 83 343 343 354 339 46 347 168
329 333 332 325 318 312 311 311 310 312 313 311 308 310 312 311 310 315 315 305 305 304 302 301 304 312 272 260 220 221 229 190 209 347 328 328 342 3 337 359 35 59 70 319 22 327 259
339 332 331 329 324 320 314 314 313 312 311 311 311 312 313 312 312 313 311 303 302 299 297 291 296 301 277 262 231 218 215 188 175 3 296 278 333 29 68 86 226 36 302 331 325 10 286
354 347 336 329 328 325 323 320 315 312 312 312 310 310 311 314 314 315 312 307 297 289 286 286 266 290 251 190 221 207 212 189 174 23 122 345 30 355 101 196 231 187 31 313 283 324 302
355 352 345 339 334 330 327 324 321 317 314 314 313 311 311 313 317 321 315 310 298 287 269 237 198 250 286 227 279 236 191 193 167 105 140 24 239 210 179 122 110 136 122 287 275 288 293
357 351 350 344 344 339 335 331 326 322 318 316 315 314 316 314 315 326 337 67 48 295 307 257 252 252 252 262 301 231 186 170 165 178 148 180 239 219 174 166 173 163 6 243 287 0 264
356 353 353 352 348 344 340 336 332 327 323 320 319 318 318 312 307 183 108 75 27 345 276 282 242 246 238 225 225 213 180 171 153 161 179 197 140 126 218 203 191 174 218 199 284 337 88
354 354 354 356 354 349 344 340 335 332 328 325 321 320 319 312 236 186 168 76 22 346 322 255 237 239 201 172 228 215 197 169 139 208 171 242 227 235 228 211 187 221 211 181 214 332 18
352 354 354 358 358 352 345 340 336 334 332 329 323 319 319 284 253 174 181 129 65 328 302 63 199 221 181 186 148 197 192 196 183 173 190 183 173 184 285 214 187 111 109 119 93 95 202
343 350 353 357 357 352 347 341 337 334 333 330 322 313 306 278 245 188 172 163 141 223 248 25 161 164 153 220 201 122 166 171 187 157 234 265 278 256 243 56 181 142 98 67 76 47 235
344 347 353 356 357 354 349 343 340 334 331 331 320 307 293 253 195 179 178 159 157 209 352 48 29 31 212 185 209 160 181 183 183 169 216 220 228 257 200 148 104 120 135 224 216 202 194
344 347 353 353 355 354 352 348 343 336 330 333 324 303 283 239 199 180 167 119 188 229 246 335 323 299 215 166 213 165 154 194 195 135 147 202 203 200 168 225 169 159 214 218 214 163 115
341 344 348 352 353 353 352 350 346 339 331 337 331 307 261 197 183 178 167 191 207 210 329 320 300 260 231 214 221 196 217 203 201 194 205 168 232 264 227 129 219 154 175 82 107 55 244
340 343 345 350 352 351 351 351 349 344 336 338 345 19 131 178 175 170 146 215 233 241 327 274 279 302 292 335 193 193 178 188 194 200 209 174 225 213 91 107 54 216 138 158 118 181 215
338 341 347 352 352 352 351 351 351 347 342 340 20 116 38 145 156 163 198 219 264 269 238 281 307 301 293 318 230 205 195 209 212 187 194 160 235 130 197 207 188 149 174 67 101 328 181
336 340 348 353 354 353 352 352 353 351 355 351 69 94 132 125 110 60 164 198 314 291 270 278 262 258 260 321 275 231 222 247 189 154 176 188 158 239 253 59 308 289 180 160 195 182 77
343 347 351 358 356 354 353 354 356 357 2 17 65 93 154 96 148 141 280 290 265 275 277 324 276 243 225 278 296 229 208 1 180 172 171 172 197 222 183 154 148 219 137 106 103 129 178
348 351 359 3 2 5 0 356 357 359 5 21 49 127 92 84 76 60 48 28 283 295 256 250 276 269 285 245 212 298 259 140 3 218 222 164 144 191 214 189 152 164 157 165 154 178 161
352 354 359 5 3 5 5 6 2 1 12 25 25 69 89 136 104 74 308 306 267 297 266 259 246 238 240 264 234 228 253 294 87 204 114 189 192 187 220 223 215 184 172 177 209 155 199
2 355 359 3 4 7 7 9 10 8 16 30 37 3 71 85 102 122 119 247 260 248 236 248 233 287 233 230 248 247 201 269 272 110 127 151 165 170 208 180 200 177 161 170 181 170 133
2 3 358 1 1 9 13 14 13 10 23 32 27 41 72 13 101 171 135 354 292 345 249 247 284 306 246 236 281 313 223 125 11 233 138 147 145 163 186 158 140 141 163 169 153 193 168
351 0 1 0 3 10 15 15 16 15 30 32 21 13 315 124 279 25 301 301 283 269 260 308 305 214 278 297 264 250 172 169 96 49 103 135 110 62 129 152 193 49 270 234 182 168 221
333 350 360 360 1 8 13 16 17 13 19 22 21 19 8 142 299 262 333 313 319 303 219 244 305 321 299 163 207 166 164 167 52 42 43 72 135 105 157 142 45 114 140 153 181 178 210
313 345 353 0 356 1 9 11 15 10 6 13 19 14 7 283 149 314 322 347 343 333 295 262 318 348 343 103 174 172 177 151 168 120 39 73 69 105 140 148 178 126 98 348 278 186 201
275 321 344 355 356 354 3 4 11 4 355 349 7 13 350 305 273 356 7 350 342 326 286 319 337 351 10 94 115 176 171 301 168 150 131 47 24 85 128 95 148 187 329 322 197 64 26
256 292 324 341 352 347 356 359 358 1 346 340 310 328 2 316 291 273 271 320 342 4 7 328 304 16 359 60 335 103 127 69 111 56 47 100 122 130 128 118 194 5 224 185 4 324 298
244 265 295 319 338 342 343 354 353 353 349 346 326 320 322 294 273 290 286 274 270 275 283 336 15 335 11 340 58 153 136 84 6 136 64 153 352 33 249 66 10 322 295 310 187 309 194